Time,TemperatureF,DewpointF,PressureIn,WindDirection,WindDirectionDegrees,WindSpeedMPH,WindSpeedGustMPH,Humidity,HourlyPrecipIn,Conditions,Clouds,dailyrainin,SoftwareType,DateUTC
2013-01-05 00:05:00,31.9,22.0,30.34,WNW,298,1.0,3.0,67,0.00,,,0.00,weatherlink.com 1.10,2013-01-05 05:05:00,
2013-01-05 00:20:00,31.7,22.0,30.34,WNW,298,0.0,1.0,68,0.00,,,0.00,weatherlink.com 1.10,2013-01-05 05:20:00,
2013-01-05 00:35:00,31.0,22.0,30.33,WNW,298,0.0,1.0,70,0.00,,,0.00,weatherlink.com 1.10,2013-01-05 05:35:00,
2013-01-05 00:50:00,30.1,22.0,30.33,WNW,298,0.0,0.0,71,0.00,,,0.00,weatherlink.com 1.10,2013-01-05 05:50:00,
2013-01-05 01:05:00,29.4,22.0,30.34,WNW,298,0.0,0.0,74,0.00,,,0.00,weatherlink.com 1.10,2013-01-05 06:05:00,
2013-01-05 01:20:00,28.7,22.0,30.34,WNW,298,0.0,1.0,77,0.00,,,0.00,weatherlink.com 1.10,2013-01-05 06:20:00,
2013-01-05 01:35:00,28.1,22.0,30.34,WNW,298,0.0,1.0,79,0.00,,,0.00,weatherlink.com 1.10,2013-01-05 06:35:00,
2013-01-05 01:50:00,27.9,22.0,30.35,WNW,298,0.0,0.0,79,0.00,,,0.00,weatherlink.com 1.10,2013-01-05 06:50:00,
2013-01-05 02:05:00,27.2,22.0,30.35,WNW,298,0.0,2.0,80,0.00,,,0.00,weatherlink.com 1.10,2013-01-05 07:05:00,
2013-01-05 02:20:00,27.0,22.0,30.35,WNW,298,0.0,0.0,82,0.00,,,0.00,weatherlink.com 1.10,2013-01-05 07:20:00,
2013-01-05 02:35:00,27.5,22.0,30.34,WNW,298,0.0,1.0,81,0.00,,,0.00,weatherlink.com 1.10,2013-01-05 07:35:00,
2013-01-05 02:50:00,27.6,24.0,30.34,WNW,298,0.0,0.0,85,0.00,,,0.00,weatherlink.com 1.10,2013-01-05 07:50:00,
2013-01-05 03:05:00,26.6,23.0,30.34,WNW,298,0.0,0.0,86,0.00,,,0.00,weatherlink.com 1.10,2013-01-05 08:05:00,
2013-01-05 03:20:00,26.5,22.0,30.34,WNW,298,0.0,1.0,83,0.00,,,0.00,weatherlink.com 1.10,2013-01-05 08:20:00,
2013-01-05 03:35:00,28.0,22.0,30.34,WNW,283,0.0,4.0,79,0.00,,,0.00,weatherlink.com 1.10,2013-01-05 08:35:00,
2013-01-05 03:50:00,28.3,22.0,30.35,WNW,283,0.0,1.0,78,0.00,,,0.00,weatherlink.com 1.10,2013-01-05 08:50:00,
2013-01-05 04:05:00,26.6,24.0,30.35,WNW,283,0.0,0.0,88,0.00,,,0.00,weatherlink.com 1.10,2013-01-05 09:05:00,
2013-01-05 04:20:00,25.6,22.0,30.35,WNW,283,0.0,0.0,87,0.00,,,0.00,weatherlink.com 1.10,2013-01-05 09:20:00,
2013-01-05 04:35:00,24.6,22.0,30.34,WNW,283,0.0,0.0,89,0.00,,,0.00,weatherlink.com 1.10,2013-01-05 09:35:00,
2013-01-05 04:50:00,24.8,22.0,30.34,WNW,283,0.0,0.0,89,0.00,,,0.00,weatherlink.com 1.10,2013-01-05 09:50:00,
2013-01-05 05:05:00,24.4,23.0,30.34,WNW,283,0.0,0.0,93,0.00,,,0.00,weatherlink.com 1.10,2013-01-05 10:05:00,
2013-01-05 05:20:00,24.0,22.0,30.33,WNW,283,0.0,3.0,90,0.00,,,0.00,weatherlink.com 1.10,2013-01-05 10:20:00,
2013-01-05 05:35:00,24.2,22.0,30.33,WNW,283,0.0,0.0,92,0.00,,,0.00,weatherlink.com 1.10,2013-01-05 10:35:00,
2013-01-05 05:50:00,23.9,21.0,30.33,WNW,283,0.0,1.0,90,0.00,,,0.00,weatherlink.com 1.10,2013-01-05 10:50:00,
2013-01-05 06:05:00,24.1,23.0,30.33,WNW,283,0.0,0.0,94,0.00,,,0.00,weatherlink.com 1.10,2013-01-05 11:05:00,
2013-01-05 06:20:00,23.9,22.0,30.34,WNW,283,0.0,0.0,92,0.00,,,0.00,weatherlink.com 1.10,2013-01-05 11:20:00,
2013-01-05 06:35:00,23.2,21.0,30.34,WNW,283,0.0,1.0,92,0.00,,,0.00,weatherlink.com 1.10,2013-01-05 11:35:00,
2013-01-05 06:50:00,23.2,22.0,30.35,WNW,283,0.0,0.0,94,0.00,,,0.00,weatherlink.com 1.10,2013-01-05 11:50:00,
2013-01-05 07:05:00,23.0,22.0,30.36,WNW,283,0.0,0.0,95,0.00,,,0.00,weatherlink.com 1.10,2013-01-05 12:05:00,
2013-01-05 07:20:00,23.7,23.0,30.36,WNW,283,0.0,0.0,97,0.00,,,0.00,weatherlink.com 1.10,2013-01-05 12:20:00,
2013-01-05 07:35:00,23.1,22.0,30.37,WNW,283,0.0,0.0,94,0.00,,,0.00,weatherlink.com 1.10,2013-01-05 12:35:00,
2013-01-05 07:50:00,23.5,23.0,30.38,WNW,283,0.0,0.0,97,0.00,,,0.00,weatherlink.com 1.10,2013-01-05 12:50:00,
2013-01-05 08:05:00,22.8,22.0,30.39,WNW,283,0.0,0.0,96,0.00,,,0.00,weatherlink.com 1.10,2013-01-05 13:05:00,
2013-01-05 08:20:00,23.4,23.0,30.39,WNW,283,0.0,0.0,97,0.00,,,0.00,weatherlink.com 1.10,2013-01-05 13:20:00,
2013-01-05 08:35:00,23.9,23.0,30.39,WNW,283,0.0,0.0,95,0.00,,,0.00,weatherlink.com 1.10,2013-01-05 13:35:00,
2013-01-05 08:50:00,25.4,24.0,30.39,WNW,283,0.0,0.0,95,0.00,,,0.00,weatherlink.com 1.10,2013-01-05 13:50:00,
2013-01-05 09:05:00,26.8,25.0,30.40,WNW,283,0.0,1.0,93,0.00,,,0.00,weatherlink.com 1.10,2013-01-05 14:05:00,
2013-01-05 09:21:00,28.9,26.0,30.41,WNW,283,1.0,2.0,89,0.00,,,0.00,weatherlink.com 1.10,2013-01-05 14:21:00,
2013-01-05 09:36:00,30.6,26.0,30.41,WNW,283,0.0,2.0,84,0.00,,,0.00,weatherlink.com 1.10,2013-01-05 14:36:00,
2013-01-05 09:51:00,32.5,27.0,30.41,WNW,283,0.0,1.0,79,0.00,,,0.00,weatherlink.com 1.10,2013-01-05 14:51:00,
2013-01-05 10:06:00,34.5,27.0,30.41,WNW,283,0.0,2.0,75,0.00,,,0.00,weatherlink.com 1.10,2013-01-05 15:06:00,
2013-01-05 10:21:00,36.2,28.0,30.41,WNW,283,0.0,3.0,71,0.00,,,0.00,weatherlink.com 1.10,2013-01-05 15:21:00,
2013-01-05 10:36:00,38.0,27.0,30.40,ESE,114,0.0,2.0,64,0.00,,,0.00,weatherlink.com 1.10,2013-01-05 15:36:00,
2013-01-05 10:51:00,39.4,26.0,30.39,ESE,114,1.0,2.0,60,0.00,,,0.00,weatherlink.com 1.10,2013-01-05 15:51:00,
2013-01-05 11:06:00,40.6,25.0,30.39,ESE,114,0.0,2.0,55,0.00,,,0.00,weatherlink.com 1.10,2013-01-05 16:06:00,
2013-01-05 11:21:00,41.7,26.0,30.40,ESE,114,4.0,5.0,54,0.00,,,0.00,weatherlink.com 1.10,2013-01-05 16:21:00,
2013-01-05 11:36:00,42.2,24.0,30.38,ESE,116,0.0,5.0,49,0.00,,,0.00,weatherlink.com 1.10,2013-01-05 16:36:00,
2013-01-05 11:51:00,43.0,25.0,30.37,SE,135,0.0,4.0,49,0.00,,,0.00,weatherlink.com 1.10,2013-01-05 16:51:00,
2013-01-05 12:06:00,43.9,26.0,30.36,ESE,121,0.0,4.0,50,0.00,,,0.00,weatherlink.com 1.10,2013-01-05 17:06:00,
2013-01-05 12:21:00,44.9,26.0,30.35,South,172,0.0,4.0,47,0.00,,,0.00,weatherlink.com 1.10,2013-01-05 17:21:00,
2013-01-05 12:36:00,44.9,25.0,30.33,SE,139,0.0,5.0,46,0.00,,,0.00,weatherlink.com 1.10,2013-01-05 17:36:00,
2013-01-05 12:51:00,44.6,25.0,30.33,SE,142,1.0,4.0,47,0.00,,,0.00,weatherlink.com 1.10,2013-01-05 17:51:00,
2013-01-05 13:06:00,44.9,26.0,30.32,ESE,115,1.0,5.0,48,0.00,,,0.00,weatherlink.com 1.10,2013-01-05 18:06:00,
2013-01-05 13:21:00,44.9,25.0,30.32,ESE,109,0.0,7.0,46,0.00,,,0.00,weatherlink.com 1.10,2013-01-05 18:21:00,
2013-01-05 13:36:00,45.4,26.0,30.32,SE,135,0.0,4.0,46,0.00,,,0.00,weatherlink.com 1.10,2013-01-05 18:36:00,
2013-01-05 13:51:00,45.2,25.0,30.32,SE,130,2.0,8.0,45,0.00,,,0.00,weatherlink.com 1.10,2013-01-05 18:51:00,
2013-01-05 14:06:00,45.2,25.0,30.30,ESE,114,2.0,7.0,46,0.00,,,0.00,weatherlink.com 1.10,2013-01-05 19:06:00,
2013-01-05 14:21:00,45.4,26.0,30.30,ESE,102,4.0,4.0,46,0.00,,,0.00,weatherlink.com 1.10,2013-01-05 19:21:00,
2013-01-05 14:36:00,45.4,27.0,30.31,SW,229,0.0,4.0,48,0.00,,,0.00,weatherlink.com 1.10,2013-01-05 19:36:00,
2013-01-05 14:51:00,45.8,26.0,30.31,SSE,154,0.0,3.0,47,0.00,,,0.00,weatherlink.com 1.10,2013-01-05 19:51:00,
2013-01-05 15:06:00,45.4,26.0,30.31,WSW,248,3.0,3.0,47,0.00,,,0.00,weatherlink.com 1.10,2013-01-05 20:06:00,
2013-01-05 15:21:00,45.2,25.0,30.31,South,173,0.0,3.0,45,0.00,,,0.00,weatherlink.com 1.10,2013-01-05 20:21:00,
2013-01-05 15:36:00,45.0,25.0,30.31,ENE,70,3.0,4.0,46,0.00,,,0.00,weatherlink.com 1.10,2013-01-05 20:36:00,
2013-01-05 15:51:00,44.8,24.0,30.30,ESE,114,0.0,5.0,45,0.00,,,0.00,weatherlink.com 1.10,2013-01-05 20:51:00,
2013-01-05 16:06:00,44.5,25.0,30.30,East,93,1.0,5.0,46,0.00,,,0.00,weatherlink.com 1.10,2013-01-05 21:06:00,
2013-01-05 16:21:00,44.4,25.0,30.29,East,93,0.0,1.0,47,0.00,,,0.00,weatherlink.com 1.10,2013-01-05 21:21:00,
2013-01-05 16:36:00,44.3,25.0,30.29,East,93,1.0,2.0,47,0.00,,,0.00,weatherlink.com 1.10,2013-01-05 21:36:00,
2013-01-05 16:51:00,44.0,25.0,30.29,East,93,0.0,2.0,48,0.00,,,0.00,weatherlink.com 1.10,2013-01-05 21:51:00,
2013-01-05 17:06:00,43.8,25.0,30.30,East,93,0.0,0.0,48,0.00,,,0.00,weatherlink.com 1.10,2013-01-05 22:06:00,
2013-01-05 17:22:00,43.5,26.0,30.30,East,93,0.0,0.0,50,0.00,,,0.00,weatherlink.com 1.10,2013-01-05 22:22:00,
2013-01-05 17:37:00,43.2,27.0,30.30,East,93,0.0,0.0,53,0.00,,,0.00,weatherlink.com 1.10,2013-01-05 22:37:00,
2013-01-05 17:52:00,42.4,27.0,30.30,East,93,0.0,0.0,54,0.00,,,0.00,weatherlink.com 1.10,2013-01-05 22:52:00,
2013-01-05 18:07:00,41.9,27.0,30.30,East,93,0.0,0.0,55,0.00,,,0.00,weatherlink.com 1.10,2013-01-05 23:07:00,
2013-01-05 18:22:00,41.6,27.0,30.29,East,93,0.0,0.0,57,0.00,,,0.00,weatherlink.com 1.10,2013-01-05 23:22:00,
2013-01-05 18:37:00,41.5,27.0,30.30,East,93,0.0,0.0,57,0.00,,,0.00,weatherlink.com 1.10,2013-01-05 23:37:00,
2013-01-05 18:52:00,41.4,28.0,30.30,East,93,0.0,0.0,60,0.00,,,0.00,weatherlink.com 1.10,2013-01-05 23:52:00,
2013-01-05 19:07:00,41.2,30.0,30.30,East,93,0.0,0.0,65,0.00,,,0.00,weatherlink.com 1.10,2013-01-06 00:07:00,
2013-01-05 19:22:00,41.4,31.0,30.31,East,93,0.0,0.0,67,0.00,,,0.00,weatherlink.com 1.10,2013-01-06 00:22:00,
2013-01-05 19:37:00,41.4,27.0,30.31,East,93,0.0,0.0,58,0.00,,,0.00,weatherlink.com 1.10,2013-01-06 00:37:00,
2013-01-05 19:52:00,41.5,28.0,30.31,East,93,0.0,0.0,60,0.00,,,0.00,weatherlink.com 1.10,2013-01-06 00:52:00,
2013-01-05 20:07:00,41.2,34.0,30.31,East,93,0.0,0.0,74,0.00,,,0.00,weatherlink.com 1.10,2013-01-06 01:07:00,
2013-01-05 20:22:00,40.8,29.0,30.32,East,93,0.0,0.0,63,0.00,,,0.00,weatherlink.com 1.10,2013-01-06 01:22:00,
2013-01-05 20:37:00,40.8,31.0,30.30,East,93,0.0,1.0,67,0.00,,,0.00,weatherlink.com 1.10,2013-01-06 01:37:00,
2013-01-05 20:52:00,40.5,33.0,30.30,East,93,0.0,0.0,74,0.00,,,0.00,weatherlink.com 1.10,2013-01-06 01:52:00,
2013-01-05 21:07:00,40.4,33.0,30.31,East,93,0.0,1.0,74,0.00,,,0.00,weatherlink.com 1.10,2013-01-06 02:07:00,
2013-01-05 21:22:00,40.2,31.0,30.32,East,93,0.0,0.0,70,0.00,,,0.00,weatherlink.com 1.10,2013-01-06 02:22:00,
2013-01-05 21:37:00,40.4,31.0,30.31,East,94,2.0,2.0,70,0.00,,,0.00,weatherlink.com 1.10,2013-01-06 02:37:00,
2013-01-05 21:52:00,40.8,31.0,30.32,SE,129,0.0,2.0,67,0.00,,,0.00,weatherlink.com 1.10,2013-01-06 02:52:00,
2013-01-05 22:07:00,41.0,31.0,30.31,SE,129,0.0,1.0,67,0.00,,,0.00,weatherlink.com 1.10,2013-01-06 03:07:00,
2013-01-05 22:22:00,41.1,30.0,30.28,ESE,112,0.0,2.0,66,0.00,,,0.00,weatherlink.com 1.10,2013-01-06 03:22:00,
2013-01-05 22:37:00,41.1,31.0,30.28,ESE,112,0.0,1.0,67,0.00,,,0.00,weatherlink.com 1.10,2013-01-06 03:37:00,
2013-01-05 22:52:00,41.0,31.0,30.27,ESE,112,0.0,1.0,68,0.00,,,0.00,weatherlink.com 1.10,2013-01-06 03:52:00,
2013-01-05 23:07:00,40.9,31.0,30.25,ESE,112,1.0,1.0,68,0.00,,,0.00,weatherlink.com 1.10,2013-01-06 04:07:00,
2013-01-05 23:22:00,40.9,32.0,30.25,ESE,106,1.0,4.0,70,0.00,,,0.00,weatherlink.com 1.10,2013-01-06 04:22:00,
2013-01-05 23:37:00,40.8,34.0,30.25,ESE,106,0.0,1.0,76,0.00,,,0.00,weatherlink.com 1.10,2013-01-06 04:37:00,
2013-01-05 23:52:00,40.5,34.0,30.25,SE,130,0.0,2.0,76,0.00,,,0.00,weatherlink.com 1.10,2013-01-06 04:52:00,